Dewpoint
31 28 27 26 26 29 32 33 34 35 37 37 35 34 36 33 26 28 38 40 39 42 44 46 46 46 47 47 48 47 44 44 43 42 41 41 40 40 41 42 43 43 44 43 44 44 42 42 47 53 54 54 54 55 55 56 56 56 56 56 56 56 55 55 55 54 55 56 55 55 55 55 54 54 55 55 55 55 54 54 54 53 50 49 51 50 50
30 31 33 31 27 29 33 35 35 36 37 38 38 38 38 38 37 39 39 37 35 38 42 43 44 44 43 40 39 39 39 39 39 38 38 38 39 40 40 41 41 40 38 38 37 37 37 37 37 40 48 53 55 55 55 56 56 56 56 56 55 55 56 56 56 56 56 56 56 55 55 55 54 54 54 54 55 55 55 55 54 54 54 54 53 52 53
33 35 36 30 31 32 32 32 33 34 36 38 39 38 37 37 36 37 37 35 34 39 40 37 37 37 37 36 35 35 35 36 36 35 35 36 37 38 38 37 36 36 37 36 36 36 36 37 37 37 38 39 45 52 55 56 56 56 56 55 55 55 55 56 56 55 56 56 56 55 55 55 55 55 55 55 54 55 55 54 54 53 54 53 53 53 53
29 34 34 33 33 32 32 32 32 33 33 32 34 35 37 36 35 35 35 34 33 38 40 34 34 35 34 33 33 33 33 33 33 33 34 34 35 36 34 34 34 35 35 35 36 36 36 36 36 36 37 38 41 46 52 54 54 54 55 55 55 55 55 56 56 55 55 55 55 55 55 55 55 54 54 55 55 54 54 54 54 52 53 53 53 52 52
28 35 33 33 30 29 28 30 32 33 33 37 38 39 38 37 37 34 34 32 37 39 41 34 34 34 34 34 33 32 32 33 33 34 35 35 35 36 36 35 35 34 35 35 36 36 35 35 35 35 36 37 37 37 37 38 37 37 38 41 43 48 53 55 55 54 55 55 54 54 54 54 54 54 54 53 53 53 54 54 53 52 52 52 52 53 53
30 32 30 31 26 21 25 33 35 34 33 35 35 35 36 37 36 32 35 35 37 35 35 34 33 34 34 35 35 36 35 34 34 34 35 35 36 36 36 36 36 37 37 37 37 37 37 36 36 36 36 36 37 39 38 37 37 36 36 36 36 36 36 37 44 51 53 53 53 54 54 54 53 53 53 53 52 52 54 54 53 52 52 51 52 52 52
28 27 28 24 19 23 33 38 31 33 36 36 35 34 34 34 34 35 35 35 35 35 35 34 33 33 35 36 36 36 37 37 36 37 37 37 38 36 36 37 38 39 39 39 39 38 38 38 37 36 36 36 37 37 37 37 37 38 37 37 37 37 37 37 38 40 42 44 48 51 52 52 52 51 52 52 52 52 52 53 53 52 52 51 52 51 51
29 30 29 19 19 30 34 36 32 34 33 33 34 33 34 34 34 36 35 35 36 35 35 36 36 36 37 37 38 37 39 40 39 38 38 40 40 39 39 37 38 38 39 39 40 40 42 42 39 38 37 37 37 37 37 36 36 36 36 36 37 38 37 37 37 38 40 41 43 45 44 44 45 47 50 51 52 53 52 52 51 50 50 49 49 50 51
27 27 28 28 32 30 30 28 30 30 28 30 30 30 31 35 32 33 33 33 33 34 36 37 38 38 38 37 38 40 40 39 39 40 41 41 40 40 40 40 40 41 41 40 41 40 40 40 41 40 40 38 37 37 36 35 34 34 35 35 35 36 37 38 38 38 39 40 41 39 39 39 39 41 42 45 46 50 51 51 50 50 51 51 50 49 49
29 28 25 28 26 24 26 32 35 37 37 36 36 31 30 35 33 32 32 32 33 34 35 36 36 38 36 33 34 38 40 39 40 40 41 41 41 41 41 42 42 42 40 39 38 36 36 37 38 38 37 37 37 36 36 35 35 34 34 35 35 36 36 36 37 37 38 37 38 38 37 38 38 38 39 39 40 44 45 45 46 46 48 49 50 50 50
27 24 21 22 20 22 29 31 34 36 37 38 36 30 27 32 32 32 31 31 32 33 33 34 35 34 31 31 33 37 39 39 39 37 38 38 39 36 35 35 36 37 36 35 34 34 35 35 37 38 38 37 35 35 35 35 35 34 35 35 36 36 36 36 36 37 37 37 37 37 37 37 38 38 38 39 39 40 41 42 43 44 44 46 48 48 49
27 26 22 22 28 27 32 34 33 34 35 39 32 24 27 34 32 31 31 32 32 33 34 34 34 31 30 30 32 35 35 35 38 34 34 35 31 29 31 34 34 34 34 33 33 34 34 35 36 35 35 36 37 35 34 34 34 35 35 36 36 36 37 37 37 37 37 37 38 38 37 37 37 38 38 37 37 38 38 39 39 40 41 42 43 45 47
27 28 27 29 29 31 32 32 32 32 35 34 27 23 30 33 32 32 32 32 33 34 35 35 31 31 31 30 32 35 35 34 34 36 35 30 29 31 32 33 36 33 33 33 33 34 34 35 35 35 35 35 35 35 34 34 34 35 36 36 36 36 36 36 37 36 36 36 37 37 37 37 37 37 37 37 37 37 37 37 37 37 38 38 40 42 43
25 25 24 25 27 29 33 33 34 34 32 25 21 31 37 35 33 34 34 34 35 34 32 30 30 30 31 33 35 36 34 35 35 29 32 30 30 31 33 35 35 33 33 33 33 33 34 34 35 34 34 34 34 34 34 34 35 35 36 36 36 36 36 36 37 36 36 36 37 38 37 37 36 36 36 36 36 36 36 36 36 36 36 37 38 39 41
25 24 21 20 20 26 33 33 31 33 28 28 35 35 33 33 32 31 31 31 30 30 29 29 29 28 28 29 29 29 30 30 30 30 30 30 30 31 32 32 33 33 32 32 33 33 33 34 34 34 34 34 34 34 34 35 36 36 36 36 36 36 36 36 37 36 37 36 37 38 37 36 36 35 36 35 35 35 35 35 35 35 36 36 37 37 38
20 21 21 22 30 31 32 32 29 31 33 34 33 31 30 32 31 29 28 28 28 28 27 27 27 28 28 29 30 30 30 31 31 31 31 31 31 31 31 32 32 33 32 32 33 33 34 34 34 34 34 35 35 34 34 35 36 36 36 36 36 36 36 36 36 36 36 36 36 36 36 36 36 35 35 35 35 35 35 34 34 35 35 35 35 35 35
24 26 29 31 31 31 31 31 31 31 32 33 32 32 31 30 30 31 29 29 29 28 28 28 28 28 29 29 29 29 30 31 31 31 31 31 31 31 32 32 33 32 32 32 32 33 33 34 34 34 34 34 35 34 34 36 36 36 36 36 36 35 35 35 35 35 36 36 36 36 36 36 35 35 35 35 35 34 35 34 34 34 34 34 34 34 35
30 30 31 32 30 30 30 31 32 31 32 32 31 31 31 32 33 31 31 30 30 30 30 29 29 29 29 29 30 30 31 31 32 33 32 32 32 31 32 32 32 32 33 33 32 32 33 34 34 35 34 34 34 33 34 35 35 35 35 35 35 35 35 35 35 35 35 35 35 35 35 35 36 36 35 35 35 35 34 34 34 34 33 34 34 34 34
28 25 30 29 28 29 29 29 30 30 31 31 32 32 32 32 32 32 32 32 31 31 30 29 29 30 29 29 30 31 32 31 31 31 31 31 31 31 32 33 33 33 33 33 33 33 33 33 34 35 34 35 35 34 34 34 35 35 35 34 35 34 34 34 34 34 33 34 34 34 33 34 34 35 34 34 34 34 33 33 33 33 33 33 33 33 33
27 27 29 30 30 29 30 29 28 28 29 30 30 31 30 30 31 33 35 35 33 33 31 30 30 30 30 30 31 31 32 32 32 31 31 31 31 32 32 33 33 32 33 33 34 34 33 34 34 34 34 34 34 35 35 35 34 34 35 34 33 33 33 34 34 34 33 33 34 33 33 33 33 33 34 34 34 33 33 33 33 33 33 33 33 33 33
28 28 28 28 28 28 28 29 28 28 28 28 28 29 29 29 29 30 30 31 30 29 29 29 29 29 30 30 30 31 31 32 32 32 32 31 32 32 32 32 32 32 33 33 33 33 33 33 33 33 34 34 34 34 34 35 34 34 34 33 33 33 33 34 34 34 34 34 34 34 34 34 33 33 33 34 34 34 33 34 33 33 33 33 34 33 33
26 27 26 27 26 24 27 28 29 30 29 29 29 28 29 29 28 29 28 29 31 30 30 29 29 29 29 30 30 30 31 30 30 30 31 31 32 32 32 33 32 34 33 32 32 32 32 33 33 33 32 33 34 35 34 34 34 33 34 33 33 33 33 33 33 33 34 34 34 34 34 34 35 35 33 35 34 33 33 34 34 34 34 32 34 34 34
25 29 28 31 29 28 28 28 30 31 30 28 27 28 27 28 28 28 28 28 28 29 29 30 29 28 29 29 29 29 30 30 31 31 30 31 31 32 33 33 33 33 33 35 33 32 32 33 33 33 33 33 33 34 34 34 33 33 33 33 32 33 32 32 33 34 33 33 34 34 35 34 35 34 35 34 35 35 34 35 35 34 34 34 34 34 35
30 31 32 30 29 28 30 30 31 30 32 30 29 29 29 28 28 29 28 28 27 27 28 29 29 28 29 29 29 29 29 29 29 30 30 31 32 33 34 33 33 33 33 32 32 32 32 32 32 33 33 33 32 33 33 33 33 32 33 32 31 31 32 33 34 33 33 33 34 34 35 34 34 34 35 35 36 35 35 35 35 35 35 34 34 34 35
28 33 34 33 31 30 31 30 30 30 31 27 26 26 28 29 28 29 28 28 27 27 28 28 29 29 29 29 29 28 28 29 30 31 32 33 32 33 33 33 32 32 32 31 32 32 32 33 33 33 32 33 32 32 32 33 33 33 33 33 33 33 32 33 33 33 33 34 34 34 34 34 34 34 34 35 35 34 33 34 35 35 35 35 35 34 35
32 31 31 31 30 29 30 28 29 28 27 27 27 29 32 32 30 28 26 26 27 27 28 28 28 29 29 28 28 28 28 29 32 32 32 33 33 33 33 32 32 32 32 33 33 33 33 33 33 33 32 32 32 32 32 33 34 33 34 34 35 35 35 33 32 33 32 33 33 32 32 32 32 33 34 34 34 33 33 33 33 34 35 35 34 34 35
28 30 27 27 27 27 26 26 27 30 28 26 24 26 28 29 32 27 26 26 27 27 28 28 28 28 29 29 29 28 27 28 30 31 31 32 33 33 32 32 32 32 32 33 33 33 33 34 33 31 32 32 32 32 33 33 33 33 33 34 34 34 34 34 32 32 31 31 32 32 33 33 34 34 34 34 34 34 33 33 33 33 34 32 33 34 34
27 28 29 26 24 22 26 26 27 29 27 26 24 24 25 25 24 24 25 26 27 27 28 28 28 28 28 28 28 29 29 29 30 30 30 31 31 32 32 31 32 31 31 32 32 33 33 33 32 31 31 31 32 33 34 33 32 33 33 34 33 32 33 32 31 31 32 32 33 34 34 34 34 34 34 34 34 34 33 33 33 33 33 33 33 34 34
24 24 25 28 27 27 28 27 26 27 27 26 25 24 24 24 23 23 25 26 26 26 27 28 29 29 28 29 29 29 27 28 28 30 30 31 32 32 31 30 31 31 31 31 31 32 33 33 32 31 31 32 33 34 34 32 32 33 34 34 33 32 31 31 31 31 31 31 33 34 33 32 32 34 34 34 32 31 31 32 33 33 34 34 34 34 34
25 26 25 25 26 23 22 23 23 25 26 25 24 23 23 24 23 23 25 26 26 25 26 27 28 28 29 28 28 29 28 26 26 28 30 32 32 30 29 30 30 29 30 30 30 31 32 33 32 31 30 31 33 33 33 32 32 33 35 36 34 32 31 31 30 31 31 32 33 33 33 32 32 32 33 34 34 33 32 33 33 33 34 35 34 34 33
26 28 26 26 25 23 22 23 23 24 24 23 24 24 24 24 24 25 25 26 25 25 26 27 27 28 28 27 27 27 27 26 25 24 26 27 27 27 27 28 28 27 28 28 30 30 31 32 33 31 32 32 33 33 33 33 32 32 34 34 33 32 33 32 32 31 32 32 33 32 32 32 32 32 32 32 33 33 34 34 34 34 33 34 34 34 35
24 26 27 24 21 18 21 22 24 24 24 24 23 22 23 24 24 24 25 26 26 26 26 26 27 27 27 27 26 25 24 22 21 23 26 27 27 24 22 25 27 28 27 28 29 30 30 31 32 33 32 32 33 33 33 32 31 31 32 33 31 31 32 32 31 31 32 32 32 31 31 32 33 32 32 31 32 33 34 34 33 33 32 33 33 34 34
23 23 23 22 23 22 22 23 23 23 23 22 23 25 25 25 25 27 26 27 26 25 26 25 26 27 27 24 22 20 17 18 21 23 24 23 21 20 18 21 26 27 28 28 29 30 31 31 33 33 32 33 32 32 33 32 31 31 30 30 30 31 32 32 31 31 33 32 32 31 31 32 31 32 31 31 31 31 32 32 32 32 32 32 32 32 32
24 25 26 24 24 21 21 24 25 24 24 25 26 26 25 26 26 26 26 26 26 26 26 25 26 27 24 21 17 17 17 17 17 17 17 16 16 16 18 24 26 27 28 29 30 31 32 33 33 33 31 31 31 33 33 32 31 31 31 30 30 31 32 32 30 31 33 33 33 33 34 32 32 31 31 30 30 30 30 31 31 31 30 30 31 31 32
28 29 26 26 26 23 23 24 25 25 25 24 24 25 26 26 25 25 26 26 26 26 27 26 24 21 18 16 16 16 16 16 16 15 14 15 16 17 20 26 26 27 28 29 30 31 32 33 33 30 29 30 30 32 32 31 31 31 30 30 31 32 33 32 31 30 30 32 33 33 32 32 31 32 32 32 31 30 30 30 31 30 29 30 30 31 31
27 29 30 26 25 25 24 24 26 26 25 24 25 25 25 27 26 26 25 24 26 28 27 24 21 20 18 16 15 15 17 17 12 11 12 13 15 17 23 26 26 26 26 29 30 31 31 31 29 28 28 29 29 33 30 29 30 30 30 30 31 31 32 32 31 31 30 31 32 32 32 31 32 31 32 32 31 31 31 30 31 30 30 30 30 30 30
29 29 30 29 27 25 25 25 25 25 25 25 25 25 26 26 25 25 25 26 28 28 27 24 22 21 20 20 19 17 16 17 17 16 17 14 17 21 22 24 24 25 25 26 29 29 29 29 28 29 30 30 30 31 29 30 30 31 31 30 31 30 30 31 32 31 31 30 30 31 31 31 31 32 33 32 31 32 32 32 32 31 30 30 31 31 31
26 30 29 31 30 28 25 25 28 29 29 27 26 26 25 26 26 26 26 27 27 28 26 24 23 22 22 21 18 17 17 14 15 15 14 16 18 22 23 23 25 23 25 27 27 26 27 27 28 29 30 31 32 30 29 29 31 31 30 30 30 30 30 30 29 30 30 30 30 32 32 32 32 33 33 33 33 33 33 33 32 32 31 31 31 31 31
26 29 29 30 29 26 24 25 25 27 27 25 25 24 25 25 24 24 25 27 28 28 26 24 23 23 23 23 22 21 20 20 19 17 17 19 21 23 25 26 27 28 28 27 26 27 27 27 26 28 28 30 32 31 29 29 29 29 31 31 30 29 29 29 29 30 31 32 32 31 31 31 32 32 32 33 33 33 33 33 32 32 32 32 32 31 31
28 29 32 32 31 30 27 26 26 25 27 27 26 24 24 23 22 23 23 26 29 28 26 25 24 24 24 24 23 23 23 24 24 22 21 21 22 23 25 26 28 29 29 29 30 29 28 27 28 26 26 27 29 27 27 28 28 27 31 31 30 29 29 30 30 31 31 30 30 31 29 29 30 31 32 33 33 33 33 33 33 32 31 31 31 31 31
31 32 33 32 32 32 30 28 25 24 25 28 27 27 25 24 23 22 22 24 27 28 26 26 25 25 25 25 24 24 24 25 25 25 24 23 24 22 23 25 27 28 29 29 29 28 27 28 26 24 24 25 24 27 25 27 26 26 28 32 30 29 30 29 29 29 29 29 30 29 29 29 29 29 31 32 33 33 33 33 33 32 32 31 31 31 31
30 32 32 31 32 33 32 31 31 29 26 26 27 28 28 26 25 23 25 26 27 28 27 27 27 26 26 27 27 26 26 26 25 25 25 23 23 25 26 27 28 29 29 30 29 25 23 26 26 26 23 23 25 27 28 27 26 26 28 33 31 30 29 29 29 29 29 30 29 28 28 28 29 28 28 30 30 32 33 33 33 33 32 32 32 31 31
29 30 31 31 31 33 34 33 33 32 30 30 29 28 28 27 27 27 28 27 26 27 27 27 27 27 26 27 27 27 27 26 25 25 25 25 25 26 27 29 29 27 29 26 24 22 22 23 24 24 26 26 26 28 28 26 26 27 29 33 31 31 29 29 29 29 28 29 28 28 28 27 26 28 28 28 29 31 33 33 33 31 31 32 33 33 32
29 30 30 32 32 33 33 33 33 31 30 30 32 30 30 28 29 28 28 27 26 26 25 25 26 24 24 27 28 26 27 26 25 25 24 25 26 27 28 28 27 26 26 26 24 24 25 25 23 25 28 28 28 29 27 27 28 28 31 33 31 30 30 29 29 28 29 28 29 28 28 29 28 26 27 28 28 29 30 31 32 32 32 33 33 33 33
28 29 30 32 31 31 31 32 32 32 35 34 33 31 30 29 30 29 28 27 27 27 27 26 25 24 23 23 24 25 26 27 26 25 24 24 24 24 26 28 27 25 25 26 26 25 24 23 25 28 28 28 29 28 26 26 26 28 32 33 32 30 30 29 29 29 28 28 28 28 29 28 28 28 27 28 29 28 29 29 29 29 30 29 29 30 30
28 29 30 31 31 32 32 32 33 33 33 32 32 31 31 30 29 29 29 29 28 28 27 27 26 25 24 23 20 19 20 23 26 26 24 23 23 24 26 27 26 25 25 27 25 25 23 27 27 28 29 29 28 26 26 27 26 27 29 32 31 31 31 30 29 29 28 28 28 28 29 28 28 28 27 27 27 27 28 29 28 28 29 28 29 28 29
30 30 30 30 31 31 32 31 32 32 32 31 28 29 31 31 30 30 30 30 30 30 30 29 28 28 26 24 22 19 18 19 20 23 25 25 25 26 28 28 27 26 26 26 26 24 23 24 26 28 29 28 28 25 26 27 27 27 28 28 30 31 31 31 30 30 28 28 29 28 30 29 30 31 30 30 28 28 28 28 27 28 28 28 28 28 29
29 29 30 30 31 32 32 31 30 29 30 30 30 30 31 32 32 33 32 31 31 30 29 29 29 30 29 28 24 22 19 19 17 18 23 24 24 25 25 25 26 26 27 27 27 26 27 27 27 27 28 28 25 25 25 27 28 28 27 28 28 28 29 29 29 29 28 28 28 28 28 26 28 29 30 30 30 30 30 30 29 29 29 29 28 28 27
31 30 30 30 30 31 31 31 30 30 31 33 32 31 32 33 33 32 31 32 32 31 30 30 31 31 31 29 27 24 24 21 21 22 23 23 22 22 22 25 27 27 26 24 24 23 27 27 27 28 28 27 24 25 24 26 27 27 27 26 27 27 27 27 27 28 30 29 28 28 27 27 27 27 28 30 30 30 30 30 29 28 29 30 30 30 30
31 30 29 28 28 29 30 30 30 30 29 29 29 29 31 30 28 28 29 29 31 30 30 31 30 30 31 30 27 25 22 21 24 24 24 22 21 20 22 23 24 25 25 24 25 24 27 28 27 27 26 24 25 24 25 26 26 26 26 27 26 25 27 27 29 29 28 28 28 28 27 27 26 27 28 29 30 30 30 30 29 30 30 30 30 30 30
30 29 30 29 29 29 30 30 30 30 30 29 29 29 30 30 30 29 29 30 28 28 28 28 29 31 31 31 30 29 24 23 24 25 23 22 21 23 22 22 24 25 24 25 26 27 24 23 22 24 25 25 24 25 24 25 24 25 25 25 25 26 26 27 27 27 27 28 27 28 27 26 27 26 26 26 26 27 29 29 30 30 30 30 30 30 30
31 30 31 30 30 30 30 31 31 31 30 29 28 28 29 30 29 28 28 30 30 29 28 27 28 31 30 32 32 31 28 23 25 24 25 24 23 20 22 24 23 24 23 23 25 26 24 24 25 26 26 24 24 25 27 27 26 25 25 25 26 25 26 26 26 27 27 28 28 27 28 27 27 26 25 25 25 26 24 25 27 29 30 30 30 30 30